Погода в Лосиноборске

Погода в Лосиноборске : погода сейчас, прогноз погоды и архив. Всё, что Вы хотите узнать о погоде в Лосиноборске!

Хотите узнать прогноз погоды в Лосиноборске? Тогда Вам сюда: Погода в Лосиноборске

Поиск расширенной информации на нашем сайте:

Другие новости

Новости СМИ2

Главная страница сайта

Новости сайта

03.07.2017

Напоминаем, что на нашем специализированном сайте Метеоцентр.Азия вы можете получить высокодетализированные автоматические прогнозы погоды по пунктам России, СНГ и мира в авиационном формате (включающие направление и скорость ветра, видимость, явления погоды, количество и форму облачности, нижнюю и верхнюю границу облачности).


Погода в Лосиноборске - сегодня

Время (UTC), дата Ветер
(°,м/с) 
Видим.   Явления Облачность Т
(°С)
Тd
(°С)
f(%) Тe
(°С)
Pmin
(гПа)
dP
(гПа)
Po
(мм)
O2
(г/м3)
Тmin Tmax R s Состояние
почвы
09 16.06.18 050 (СВ) 20000 м    9/6 1000 м средняя 
[Cu med, cong|Ac und]
+21.9 +11.1 50 +25  1009.4  0.4  745  276           
12 16.06.18 090 (В) 20000 м    9/5 1000 м средняя 
[Sc|Ac und]
+20.2 +12.8 62 +25  1009.6  0.1  745  277    +21.9  0.0     
15 16.06.18 тихо ()   20000 м    8/3 1000 м верхняя 
[Sc|Ci fib]
+17.8 +14.1 79 +25  1010.1  0.4  746  279           
18 16.06.18 тихо ()   н/о  в посл. час гроза{ливн. осадки}  10/10 600 м кучево-дожд. 
[Cb cap]
+13.2 +12.8 97 +18  1010.7  0.3  746  284           
21 16.06.18 тихо ()   10 км    10/10 1000 м 
[Sc]
+12.8 +11.5 92 +16  1010.9  0.2  746  285           
00 17.06.18 тихо ()   20000 м    9/9 1000 м 
[Sc]
+14.4 +13.7 96 +21  1010.8  0.1  746  283  +12.1      влажная 
03 17.06.18 140 (ЮВ) 20000 м  {дождь}  10/10 600 м 
[Frnb|Ns]
+15.3 +14.8 97 +25  1010.8  746  282           
06 17.06.18 140 (ЮВ) 20000 м  {дождь}  10/8 600 м средняя 
[Frnb|As op]
+16.6 +15.2 91 +27  1011.1  0.4  746  280           
09 17.06.18 140 (ЮВ) 20000 м    9/9 600 м кучево-дожд. 
[Cb cap]
+20.4 +16.1 76 +31  1010.3  -0.6  746  276           
12 17.06.18 140 (ЮВ) 20000 м    9/6 600 м кучево-дожд., верхняя 
[Cb cap|Ci fib]
+21 +15.3 70 +30  1009.7  -0.6  746  276    +21  0.3     
15 17.06.18 тихо ()   20000 м    9/3 600 м кучево-дожд., средняя, верхняя 
[Cb cap|Ac trans|Ci fib]
+17.8 +17 95 +30  1009.8  -0.1  745  278           
18 17.06.18 тихо ()   н/о  туман  9/0 верхняя 
[Ci fib]
+13.8 +13.4 97 +20  1010.3  0.2  746  283           
21 17.06.18 тихо ()   10 км    9/0 верхняя 
[Ci fib]
+13.1 +12.7 97 +18  1009.9  -0.4  745  284      114     
00 18.06.18 тихо ()   20000 м  {туман}  9/0 верхняя 
[Ci fib]
+14.3 +13.8 97 +21  1009.9  0.2  745  283  +13.1        влажная 
03 18.06.18 140 (ЮВ) 20000 м    3/0 верхняя 
[Ci fib]
+21.9 +15.8 68 +32  1008.9  -0.7  745  274           
06 18.06.18 140 (ЮВ) 20000 м    5/0 верхняя 
[Ci fib]
+26.6 +15.3 50 +36  1007.3  -1.2  744  270           
09 18.06.18 140 (ЮВ) 20000 м    3/0 верхняя 
[Ci fib]
+28.3 +13.6 40 +35  1006.1  -1.1  743  269           
12 18.06.18 140 (ЮВ) 20000 м    3/0 верхняя 
[Ci fib]
+28 +12.2 38 +32  1005.1  -1.1  742  269    +28.3       
15 18.06.18 тихо ()   20000 м    3/0 верхняя 
[Ci fib]
+23 +11.4 48 +26  1004.5  -0.8  742  274           
18 18.06.18 тихо ()   н/о    3/0 верхняя 
[Ci fib]
+14.4 +11.4 82 +18  1003.7  -1.4  741  281           
21 18.06.18 тихо ()   20000 м    4/0 верхняя 
[Ci fib]
+12 +10.9 93 +15  1002.2  -1.5  740  283           
00 19.06.18 тихо ()   20000 м    3/0 верхняя 
[Ci fib]
+19 +15.8 82 +30  1000.5  -1.3  739  275  +12        влажная 
03 19.06.18 090 (В) 20000 м    ясно 
+24 +15.8 60 +35  998.7  -1.4  738  270           
06 19.06.18 090 (В) 20000 м    3/0 верхняя 
[Ci fib]
+28 +14.4 43 +36  998  -0.5  737  267           
09 19.06.18 140 (ЮВ) 20000 м    8/0 средняя, верхняя 
[Ac und|Ci fib]
+29.5 +14.6 40 +38  997.8  -0.2  737  265           
Время (UTC), дата Ветер
(°,м/с) 
Видим.   Явления Облачность Т
(°С)
Тd
(°С)
f(%) Тe
(°С)
Pmin
(гПа)
dP
(гПа)
Po
(мм)
O2
(г/м3)
Тmin Tmax R s Состояние
почвы

Для получения пояснительной информации подведите курсор к названию столбца.

ПОГОДА в Лосиноборске - архив

Всё, что Вы хотите узнать о погоде в Лосиноборске - удобно и подробно!

Выберите нужную дату (начиная с 1 января 2015* года) и нажмите кнопку "Найти".
Будут отображены архивные сводки погоды по пункту Лосиноборск, начиная с указанной даты.


Отображать данные в формате CSV (для использования в таблицах Excel)


Внимание! Наш архив погоды предназначен исключительно для личного некоммерческого использования в познавательных целях. Если Вам необходимы официальные справки о состоянии погоды (для производственных, юридических, коммерческих и т.п. целей), обращайтесь в органы Росгидромета.

*Примечание: данная дата относится к архиву по метеостанциям СССР (Россия, СНГ, Балтия).
Архив по метеостанциям Зарубежной Европы и Азии (кроме Китая) хранится 10 дней, по другим регионам земного шара (Китай, Африка, Америка, Австралия, Океания) - 1 день.

Лосиноборск - район местоположения метеостанции


Название, широта, долгота, высота метеостанции:
Лосиноборск 58.4°ш. 89.4°д. 137 м над ур. моря [Российская Федерация]

Дополнительная информация

В oтличие oт бoльшинства пoгoдных сайтoв мы публикуем пoдрoбную метеoинфoрмацию в детальнoм прoфессиoнальнoм фoрмате.

Характеристики температуры и влажнoсти вoздуха измеряются на высoте 2 м в тени вдали oт зданий и деревьев.
Скoрoсть ветра измеряется на высoте 10 м (на урoвне рoста челoвека скoрoсть ветра ниже в 1.5-2 раза). Если метеoстанция нахoдится в гoрoде или в лесу, тo скoрoсть ветра занижена на 2-4 м/с пo сравнению с oткрытым местoм. Скoрoсть ветра над акватoриями крупных рек и oзёр, а также на вершинах хoлмoв на 2-5 м/с выше, чем в oбычных услoвиях.
Атмoсфернoе давление в разных тoчках местнoсти мoжет значительнo oтличаться oт давления на метеoстанции, в зависимoсти oт услoвий рельефа (при пoдъёме на 10 м давление пoнижается примернo на 1 мм рт.ст.).